Home   Weather   Ilulissat   Past weeks

Flag for Greenland Past Weather in Ilulissat, Greenland — Yesterday and Last 2 Weeks

Now
21 °F

Light snow. Partly sunny.


Feels Like: 21 °F
Forecast: 18 / 24 °F
Wind: No wind

Location: Jacobshavn Lufthavn

Current Time: Dec 8, 2016 at 8:58:09 am

Latest Report: Dec 8, 2016 at 7:50 am


Visibility: 4 mi

Pressure: 29.45 "Hg

Humidity: 93%

Dew Point: 19 °F

Location of IlulissatLocation

Past Weather in Ilulissat — Graph

°F

Ilulissat Temperature Yesterday

Maximum temperature yesterday: 25 °F (at 3:50 pm)
Minimum temperature yesterday: 19 °F (at 12:50 am)
Average temperature yesterday: 22 °F

High & Low Weather Summary for the Past Weeks

 TemperatureHumidityPressure
High25 °F (Dec 6, 10:50 am)93% (Dec 7, 10:50 am)30.24 "Hg (Dec 7, 10:50 am)
Low0 °F (Nov 26, 9:50 am)30% (Nov 25, 3:50 am)29.33 "Hg (Dec 6, 8:50 pm)
Average12 °F62%29.83 "Hg
* Reported Nov 23 7:50 am — Dec 8 7:50 am, Ilulissat, Weather by CustomWeather, © 2016

Note: Actual official high and low records may vary slightly from our data, if they occured in-between our weather recording intervals... More about our weather records

Advertising

Ilulissat Weather History for the Previous 24 Hours

Scroll right to see more
 ConditionsComfort  
Time TempWeatherWind HumidityBarometerVisibility
7:50 am
Thu, Dec 8
21 °FLight snow. Partly sunny.No wind93%29.45 "Hg4 mi
6:50 am21 °FLight snow. Partly sunny.No wind93%29.45 "HgN/A
5:50 am21 °FLight snow. Passing clouds.3 mph93%29.45 "Hg3 mi
4:50 am21 °FLight snow. Overcast.1 mph93%29.45 "HgN/A
3:50 am21 °FLight snow. Mostly cloudy.1 mph93%29.45 "Hg3 mi
2:50 am21 °FLight snow. Mostly cloudy.1 mph86%29.45 "Hg2 mi
1:50 am21 °FLight snow. Ice fog.5 mph86%29.42 "Hg1 mi
12:50 am23 °FLight snow. Broken clouds.6 mph86%29.42 "Hg2 mi
11:50 pm
Wed, Dec 7
23 °FLight snow. Mostly cloudy.14 mph86%29.42 "HgN/A
10:50 pm23 °FLight snow. Mostly cloudy.13 mph86%29.42 "Hg1 mi
9:50 pm23 °FLight snow. Mostly cloudy.18 mph86%29.39 "Hg3 mi
8:50 pm23 °FLight snow. Overcast.20 mph86%29.39 "Hg1 mi
7:50 pm23 °FLight snow. Mostly cloudy.17 mph86%29.39 "Hg1 mi
6:50 pm25 °FSnow flurries. Ice fog.22 mph86%29.39 "Hg2 mi
5:50 pm25 °FLight snow. Mostly cloudy.21 mph86%29.39 "Hg1 mi
4:50 pm25 °FLight snow. Broken clouds.20 mph86%29.36 "Hg1 mi
3:50 pm25 °FLight snow. Broken clouds.14 mph86%29.36 "Hg3 mi
2:50 pm23 °FLight snow. Partly sunny.No wind86%29.36 "Hg2 mi
1:50 pm19 °FLight snow. Broken clouds.5 mph93%29.36 "Hg3 mi
12:50 pm21 °FLight snow. Broken clouds.5 mph86%29.36 "Hg2 mi
11:50 am21 °FLight snow. Partly sunny.6 mph86%29.39 "HgN/A
10:50 am19 °FLight snow. Partly sunny.6 mph93%29.39 "HgN/A
9:50 am21 °FLight snow. Partly sunny.3 mph86%29.39 "Hg3 mi
8:50 am21 °FLight snow. Broken clouds.5 mph86%29.36 "Hg4 mi
Weather by CustomWeather, © 2016

See weather overviewHow to use our weather pages